#timestamp,LO_Frequency,Hit,StdDev 
1583017215.3,286046998.5,N
1583017235.1,286046999.1,N
1583017255.9,286046998.6,N
1583017275.7,286046998.5,N
1583017295.5,286046998.2,N
1583017315.4,286047001.1,N
1583017335.2,286046999.7,N
1583017355.1,286047000.5,N
1583017356.0,286047000.5,N
1583017375.8,286047000.1,N
1583017395.6,286047000.1,N
1583017415.5,286047000.7,N
1583017435.3,286047000.5,N
1583017455.1,286046998.8,N
1583017475.9,286046998.4,N
1583017495.7,286047001.0,N
1583017515.6,286047002.4,N
1583017535.4,286047001.0,N
1583017555.2,286047000.6,N
1583017575.1,286047000.4,N
1583017576.0,286047000.4,N
1583017595.8,286046999.7,N
1583017615.7,286047001.6,N
1583017635.5,286047001.7,N
1583017655.3,286047001.4,N
1583017675.2,286047004.2,Y
1583017695.0,286047003.1,P
1583017695.9,286047003.1,N
1583017715.7,286047004.0,N
1583017735.6,286046998.3,N
1583017755.4,286046998.8,N
1583017775.3,286046999.5,N
1583017795.1,286046999.3,N
1583017796.0,286046999.3,N
1583017815.8,286046998.8,N
1583017835.7,286046996.9,N
1583017855.5,286046997.1,N
1583017875.3,286046996.5,N
1583017895.2,286046999.1,N
1583017915.0,286046998.1,N
1583017915.9,286046998.1,N
1583017935.8,286046998.4,N
1583017955.6,286047000.8,N
1583017975.4,286047001.0,N
1583017995.3,286047002.1,N
1583018015.1,286047000.2,N
1583018035.9,286047001.5,N
1583018055.7,286047002.7,N
1583018075.5,286047000.5,N
1583018095.4,286047000.1,N
1583018115.2,286046998.6,N
1583018135.0,286046998.9,N
1583018135.9,286046998.9,N
1583018155.8,286046998.6,N
1583018175.6,286047001.2,N
1583018195.5,286047001.2,N
1583018215.3,286047000.0,N
1583018235.1,286047000.8,N
1583018255.9,286047000.9,N
1583018275.7,286047001.2,N
1583018295.5,286047000.9,N
1583018315.4,286047002.2,N
1583018335.2,286047002.4,N
1583018355.1,286047002.5,N
1583018356.0,286047002.5,N
1583018375.8,286047002.6,N
1583018395.6,286047001.6,N
1583018415.5,286047000.2,N
1583018435.3,286046999.9,N
1583018455.2,286047002.0,N
1583018475.9,286047000.2,N
1583018495.7,286047000.1,N
1583018515.6,286047000.3,N
1583018535.4,286046999.9,N
1583018555.2,286047001.7,N
1583018575.1,286047002.2,N
1583018576.0,286047002.2,N
1583018595.8,286047002.7,N
1583018615.7,286047000.3,N
1583018635.5,286047000.4,N
1583018655.3,286047001.4,N
1583018675.2,286046998.2,N
1583018695.0,286046998.4,N
1583018695.9,286046998.4,N
1583018715.8,286046998.2,N
1583018735.6,286046998.8,N
1583018755.4,286046998.9,N
1583018775.3,286046996.5,N
1583018795.1,286046998.4,N
1583018815.8,286046998.8,N
1583018835.7,286046998.1,N
1583018855.5,286047000.5,N
1583018875.4,286047000.5,N
1583018895.2,286046998.7,N
1583018915.0,286047000.9,N
1583018915.9,286047000.9,N
1583018935.8,286046998.1,N
1583018955.6,286047001.2,N
1583018975.4,286047000.6,N
1583018995.3,286046998.7,N
1583019015.1,286046998.5,N
1583019035.9,286047001.0,N
1583019055.7,286047000.6,N
1583019075.5,286046998.2,N
1583019095.4,286047001.2,N
1583019115.2,286046999.9,N
1583019135.0,286047000.2,N
1583019135.9,286047000.2,N
1583019155.8,286047004.0,Y
1583019175.6,286047005.6,P
1583019195.5,286047002.9,N
1583019215.3,286047005.7,N
1583019235.1,286047003.3,N
1583019255.9,286047006.9,Y
1583019275.7,286047002.1,P
1583019295.6,286047002.6,P
1583019315.4,286047002.4,P
1583019335.2,286047002.4,Y
1583019355.1,286046999.3,P
1583019356.0,286046999.3,N
1583019375.8,286046999.4,N
1583019395.6,286046997.2,N
1583019415.5,286046997.2,N
1583019435.3,286046997.2,N
1583019455.2,286046997.3,N
1583019475.9,286046999.3,N
1583019495.7,286046999.0,N
1583019515.6,286046999.5,N
1583019535.4,286046999.2,N
1583019555.3,286046999.2,N
1583019575.1,286046996.7,N
1583019576.0,286046996.7,N
1583019595.8,286046999.4,N
1583019615.7,286046999.0,N
1583019635.5,286047000.5,N
1583019655.3,286046998.5,N
1583019675.2,286046998.9,N
1583019695.0,286046998.2,N
1583019695.9,286046998.2,N
1583019715.8,286046998.4,N
1583019735.6,286046999.4,N
1583019755.4,286046996.8,N
1583019775.3,286046999.4,N
1583019795.1,286046999.2,N
1583019815.8,286046999.4,N
1583019835.7,286046998.3,N
1583019855.5,286046999.2,N
1583019875.4,286046999.3,N
1583019895.2,286046999.2,N
1583019915.0,286046998.4,N
1583019915.9,286046998.4,N
1583019935.8,286046998.1,N
1583019955.6,286046999.7,N
1583019975.5,286046999.9,N
1583019995.3,286046999.7,N
1583020015.1,286047000.6,N
1583020035.9,286047000.8,N
1583020055.7,286046999.0,N
1583020075.5,286046998.7,N
1583020095.4,286046999.4,N
1583020115.2,286046996.9,Y
1583020135.1,286046998.8,P
1583020136.0,286046998.8,P
1583020155.8,286046998.3,P
1583020175.6,286046998.3,Y
1583020195.5,286047000.1,P
1583020215.3,286047000.7,N
1583020235.2,286047002.4,N
1583020255.0,286047000.1,N
1583020255.9,286047000.1,N
1583020275.7,286047000.4,N
1583020295.6,286047000.3,N
1583020315.4,286047000.1,N
1583020335.3,286047000.6,N
1583020355.1,286047000.4,N
1583020356.0,286047000.4,N
1583020375.8,286046998.1,N
1583020395.7,286047000.7,N
1583020415.5,286046998.1,N
1583020435.3,286046998.3,N
1583020455.2,286046998.7,N
1583020475.0,286046996.6,Y
1583020475.9,286046996.6,P
1583020495.8,286046998.4,N
1583020515.6,286046996.6,N
1583020535.4,286046999.0,N
1583020555.3,286046998.2,N
1583020575.1,286047000.9,N
1583020595.9,286047000.0,N
1583020615.7,286047000.9,N
1583020635.5,286047000.7,N
1583020655.4,286046998.5,N
1583020675.2,286046998.7,N
1583020695.0,286046998.7,N
1583020695.9,286046998.7,N
1583020715.8,286046996.7,N
1583020735.6,286046997.4,N
1583020755.5,286046995.3,Y
1583020775.3,286046998.1,P
1583020795.1,286046998.1,P
